This demonstration page uses our WeatherBlox Daily Observations layout. Learn more.

Left ArrowRight Arrow

34.74481, -87.66753

Hourly Observations for April 1, 2015

Temp ( °F °C ) Dew Point ( °F °C ) Humidity (%) Winds ( mph kmh ) Pressure ( in mb ) Visibility ( mi km ) Precip ( " mm )
12:53 am 00:53 Partly Cloudy 58 14.4 56 13.3 93 93 WNW 6 9 29.96 1015 7 11 0.02 0.51
1:53 am 01:53 Mostly Clear with Mist and Fog 58 14.4 55 12.8 90 90 NW 6 9 29.98 1015 5 8 0.01 0.25
2:42 am 02:42 Mostly Cloudy with Mist and Fog 57 13.9 54 12.2 90 90 WNW 3 6 30.03 1017 6 10 0.00 0.00
2:53 am 02:53 Partly Cloudy 58 14.4 55 12.8 90 90 NE 3 6 30.01 1016 7 11 0.00 0.00
3:53 am 03:53 Clear with Mist and Fog 57 13.9 54 12.2 90 90 N 3 6 30.00 1016 5 8 0.00 0.00
4:43 am 04:43 Clear with Mist and Fog 54 12.2 52 11.1 93 93 Calm 30.00 1016 1 1 0.00 0.00
4:53 am 04:53 Clear with Fog 54 12.2 51 10.6 90 90 Calm 30.01 1016 1 1 0.00 0.00
5:18 am 05:18 Mostly Clear with Mist and Fog 54 12.2 53 11.7 97 97 SW 7 11 30.03 1017 2 3 0.00 0.00
5:23 am 05:23 Mostly Cloudy with Mist and Fog 55 12.8 53 11.7 93 93 WSW 5 7 30.06 1018 1 1 0.00 0.00
5:29 am 05:29 Mostly Cloudy with Fog 53 11.7 52 11.1 96 96 SW 3 6 30.06 1018 0 0 0.00 0.00
5:53 am 05:53 Mostly Cloudy with Fog 53 11.7 51 10.6 93 93 Calm 30.04 1017 0 0 0.00 0.00
6:06 am 06:06 Mostly Cloudy with Fog 53 11.7 52 11.1 96 96 Calm 30.06 1018 0 0 0.00 0.00
6:31 am 06:31 Mostly Cloudy with Fog 54 12.2 52 11.1 93 93 Calm 30.06 1018 0 0 0.00 0.00
6:53 am 06:53 Mostly Cloudy with Fog 54 12.2 53 11.7 97 97 Calm 30.05 1018 5 8 0.00 0.00
7:53 am 07:53 Mostly Cloudy with Fog 54 12.2 53 11.7 97 97 Calm 30.06 1018 5 8 0.00 0.00
8:08 am 08:08 Mostly Cloudy with Fog 55 12.8 53 11.7 93 93 Calm 30.09 1019 5 8 0.00 0.00
8:29 am 08:29 Mostly Cloudy with Mist and Fog 57 13.9 55 12.8 93 93 Calm 30.06 1018 1 2 0.00 0.00
8:35 am 08:35 Mostly Cloudy with Mist and Fog 56 13.3 54 12.2 93 93 NE 5 7 30.06 1018 3 5 0.00 0.00
9:53 am 09:53 Sunny 64 17.8 49 9.4 58 58 ESE 5 7 30.08 1019 10 16 0.00 0.00
11:53 am 11:53 Sunny 69 20.6 51 10.6 53 53 Calm 30.08 1019 10 16 0.00 0.00
12:53 pm 12:53 Sunny 72 22.2 49 9.4 44 44 ESE 5 7 30.07 1018 10 16 0.00 0.00
1:53 pm 13:53 Sunny 74 23.3 53 11.7 48 48 undefined N/A 30.05 1018 10 16 0.00 0.00
2:53 pm 14:53 Sunny 76 24.4 50 10 40 40 Calm 30.02 1017 10 16 0.00 0.00
3:53 pm 15:53 Sunny 77 25 50 10 39 39 Calm 30.01 1016 10 16 0.00 0.00
4:53 pm 16:53 Sunny 77 25 54 12.2 45 45 SE 5 7 29.99 1016 10 16 0.00 0.00
5:53 pm 17:53 Sunny 77 25 56 13.3 48 48 SE 6 9 29.98 1015 10 16 0.00 0.00
6:53 pm 18:53 Sunny 72 22.2 58 14.4 61 61 SSE 5 7 29.99 1016 10 16 0.00 0.00
7:53 pm 19:53 Partly Cloudy 69 20.6 57 13.9 66 66 E 6 9 30.01 1016 10 16 0.00 0.00
8:53 pm 20:53 Mostly Clear 67 19.4 55 12.8 66 66 ESE 5 7 30.02 1017 10 16 0.00 0.00
9:53 pm 21:53 Partly Cloudy 66 18.9 56 13.3 70 70 SE 7 11 30.02 1017 10 16 0.00 0.00
10:53 pm 22:53 Mostly Clear 68 20 56 13.3 65 65 S 6 9 30.02 1017 10 16 0.00 0.03
11:53 pm 23:53 Partly Cloudy 67 19.4 56 13.3 68 68 SSE 7 11 30.01 1016 10 16 0.00 0.00

Powered by AerisWeather